STARLINK-38355, 100508

Orbit data source: Space-Track

STARLINK-38355, 100508 is a payload satellite owned by SpaceX/Seattle (US) in LEO that was launched on Wed, 26 Aug 2026 UTC launched from the Air Force Western Test Range (AFWTR). Payload-class satellites include a variety of spacecraft equipped with specific instruments for various scientific and technological missions. These include communications satellites like Starlink; space stations such as the ISS; scientific satellites like the Hubble; Earth observation satellites from companies like Planet Labs, Umbra, and HawkEye 360; GPS; miniature CubeSats for education and research; and military/defense satellites.

Loading next visibility...
Identifier
100508, 2026-197G
Orbit
LEO
Country
Flag of USUS
Related business
Manufacturer
SpaceX/Seattle
Mission
Operational spacecraft
Bus & Motor
STARLINK V2MO, Unknown motor
Mass
575 kg wet, ~530 kg dry
Launch date (UTC)
2026-08-26 (2 weeks ago)
Launch vehicle
Unknown
Launch site
Air Force Western Test Range (AFWTR)
Object type
Payload
Rocket body
Debris
Shape & HBR
BOX + PAN, 17.7 m
Radar Cross Section
RCS unknown

Expand to show TLE details & history
Last TLE update: 8 hours ago

TLE from 8 hours ago
0 STARLINK-38355
1 A0508U 26197G   26251.47741908  .00284306  00000-0  13329-2 0  9997
2 A0508  69.9988 155.8205 0003592 259.8700 100.2097 15.82278926  2090
Epoch: 2026-09-08T11:27Z
TLE epoch observation values (Epoch: 2026-09-08T11:27:29.008Z)
Latitude
-0.00002°
Longitude
-3.59364°
Altitude
326.939 km
Speed
7.712 km/s
True Right ascension
10h 23m 16s
True Declination
0° 00' 00"
Sunlit
Object was in daylight at epoch
Visualization orbit readout
Latitude
Unknown
Longitude
Unknown
Altitude
Unknown
Speed
Unknown
Apparent Right ascension
Unknown
Apparent Declination
Unknown
Sunlit
N/A
Visualization observer readout
Local Sidereal Time
11:15:01
Azimuth
Unknown
Elevation
Unknown
Doppler factor
Unknown
Orbital elements
Apogee altitude
324.276 km
Perigee altitude
319.463 km
Semi-major axis
6,700.007 km
Eccentricity
0.00036
Inclination
69.9988°
RAAN
155.8205°
Arg. of periapsis
259.87°
True anomaly
100.25021°
Mean anomaly
100.2097°
Eccentric anomaly
100.22995°
Mean motion
3.95759 °/min
Orbital period
90.96 mins
BSTAR
0.0013329
Loading maneuver chart data...
Computing Atmospheric mass density...
Loading historical data...
Loading historical data...
Loading historical data...
Loading historical data...
Loading historical data...
Loading historical data...
Loading historical data...

Documentation

Showing up to 5 results
|